Location: Beuvrequen
(50.8014°N, 1.6652°E)
Time: 22:07:10
(UTC+00:00)

Cosmos 1470 - Pass Details

Date: 16 October 2021
Orbit: 519 x 542 km, 82.5° (Epoch: 04 December)

Event Time Altitude Azimuth Distance (km) Brightness Sun altitude
Rises 17:55:13 0° 199° (SSW) 2,692 6.6 -9.7°
Reaches altitude 10° 17:57:23 10° 204° (SSW) 1,806 5.8 -10.0°
Maximum altitude 18:01:18 57° 283° (WNW) 646 3.5 -10.6°
Drops below altitude 10° 18:05:15 10° 3° (N) 1,818 5.4 -11.3°
Sets 18:07:27 0° 8° (N) 2,713 6.3 -11.6°
